Weather History for Abbotsford, BC

Change the Weather History Date:

Wednesday, May 22, 2013

  Actual Average Record
Temperature  
Mean Temperature 52 °F -  
Max Temperature 58 °F 67 °F 84 °F (2001)
Min Temperature 46 °F 48 °F 41 °F (2007)
Degree Days  
Heating Degree Days 13    
Growing Degree Days 2 (Base 50)    
Moisture  
Dew Point 46 °F    
Average Humidity 83    
Maximum Humidity 100    
Minimum Humidity 55    
Precipitation  
Precipitation 0.24 in 0.10 in - ()
Sea Level Pressure  
Sea Level Pressure 29.88 in    
Wind  
Wind Speed 4 mph ()    
Max Wind Speed 13 mph    
Max Gust Speed -    
Visibility 12.8 miles    
Events Rain    
Averages and records for this station are not official NWS values.
T = Trace of Precipitation, MM = Missing Value Source: Averaged Metar Reports

Daily Weather History Graph

Daily Weather History Graph

Search for Another Location

Airport:

Trip Planner

Search our weather history database for the weather conditions in past years. The results will help you decide how hot, cold, wet, or windy it might be!

Date:

Astronomy

May. 22, 2013 Rise Set
Actual Time 5:18 AM PDT 8:54 PM PDT
Civil Twilight 4:38 AM PDT 9:34 PM PDT
Nautical Twilight 3:45 AM PDT 10:28 PM PDT
Astronomical Twilight 2:30 AM PDT 11:44 PM PDT
Moon 6:12 PM PDT 3:40 AM PDT
Length of Visible Light 16h 55m
Length of Day
15h 36m
Waxing Gibbous, 92% of the Moon is Illuminated
May 22
Waxing Gibbous
May 24
Full
May 31
Last Quarter
Jun 8
New
Jun 16
First Quarter

Hourly Weather History & Observations

Time (PDT) Temp. Windchill Dew Point Humidity Pressure Visibility Wind Dir Wind Speed Gust Speed Precip Events Conditions
12:00 AM 48.2 °F - 46.4 °F 93% 29.86 in 15.0 mi ENE 3.5 mph - N/A   Overcast
1:00 AM 48.2 °F - 46.4 °F 93% 29.86 in 10.0 mi North 3.5 mph - N/A   Mostly Cloudy
1:23 AM 48.2 °F - 46.4 °F 93% 29.87 in 10.0 mi NNE 4.6 mph - N/A Rain Light Rain Showers
1:50 AM 48.2 °F - 46.4 °F 93% 29.87 in 10.0 mi NNE 2.3 mph - N/A   Mostly Cloudy
2:00 AM 48.2 °F - 46.4 °F 93% 29.87 in 10.0 mi NNE 3.5 mph - N/A   Mostly Cloudy
3:00 AM 46.4 °F 44.3 °F 46.4 °F 100% 29.88 in 8.0 mi NNE 4.6 mph - N/A   Mostly Cloudy
4:00 AM 48.2 °F - 46.4 °F 93% 29.88 in 10.0 mi NE 3.5 mph - N/A   Overcast
5:00 AM 48 °F - 47 °F 96% 29.88 in 10 mi NNE 3.5 mph - -   Partly Cloudy
5:00 AM 48.2 °F - 46.4 °F 93% 29.88 in 10.0 mi NNE 3.5 mph - N/A   Overcast
6:00 AM 48.2 °F - 46.4 °F 93% 29.88 in 4.0 mi NE 2.3 mph - N/A   Overcast
7:00 AM 48.2 °F - 46.4 °F 93% 29.88 in 4.0 mi ENE 4.6 mph - N/A   Overcast
8:00 AM 48.2 °F - 46.4 °F 93% 29.87 in 5.0 mi NNE 4.6 mph - N/A   Mostly Cloudy
8:11 AM 50.0 °F - 46.4 °F 87% 29.87 in 5.0 mi NNE 4.6 mph - N/A   Mostly Cloudy
8:27 AM 50.0 °F - 46.4 °F 87% 29.87 in 10.0 mi NNE 6.9 mph - N/A   Mostly Cloudy
8:40 AM 50.0 °F - 46.4 °F 87% 29.87 in 15.0 mi NE 4.6 mph - N/A   Mostly Cloudy
8:49 AM 50.0 °F - 46.4 °F 87% 29.87 in 15.0 mi East 5.8 mph - N/A   Mostly Cloudy
9:00 AM 50.0 °F - 46.4 °F 87% 29.87 in 15.0 mi East 5.8 mph - N/A   Mostly Cloudy
9:18 AM 51.8 °F - 48.2 °F 88% 29.87 in 15.0 mi Calm Calm - N/A   Mostly Cloudy
9:37 AM 51.8 °F - 48.2 °F 88% 29.86 in 20.0 mi North 3.5 mph - N/A   Mostly Cloudy
10:00 AM 51.8 °F - 44.6 °F 76% 29.86 in 20.0 mi Variable 2.3 mph - N/A   Mostly Cloudy
10:18 AM 51.8 °F - 44.6 °F 76% 29.86 in 20.0 mi Calm Calm - N/A   Mostly Cloudy
11:00 AM 54 °F - 46 °F 67% 29.86 in 19 mi WSW 2.3 mph - -   Mostly Cloudy
11:00 AM 53.6 °F - 46.4 °F 77% 29.85 in 20.0 mi Calm Calm - N/A   Mostly Cloudy
12:00 PM 53.6 °F - 44.6 °F 72% 29.87 in 20.0 mi South 2.3 mph - N/A   Overcast
1:00 PM 55.4 °F - 46.4 °F 72% 29.86 in 20.0 mi West 3.5 mph - N/A   Mostly Cloudy
2:00 PM 57.2 °F - 44.6 °F 63% 29.86 in 20.0 mi WNW 3.5 mph - N/A   Overcast
3:00 PM 57.2 °F - 46.4 °F 67% 29.87 in 20.0 mi South 10.4 mph - N/A Rain Light Rain Showers
3:26 PM 57.2 °F - 46.4 °F 67% 29.88 in 20.0 mi South 12.7 mph - N/A   Overcast
4:00 PM 57.2 °F - 46.4 °F 67% 29.87 in 20.0 mi SW 11.5 mph - N/A   Mostly Cloudy
5:00 PM 57 °F - 45 °F 55% 29.87 in 19 mi SW 9.2 mph - -   Partly Cloudy
5:00 PM 57.2 °F - 44.6 °F 63% 29.87 in 20.0 mi SSW 10.4 mph - N/A   Mostly Cloudy
6:00 PM 57.2 °F - 46.4 °F 67% 29.88 in 15.0 mi SSW 11.5 mph - N/A   Overcast
6:19 PM 55.4 °F - 46.4 °F 72% 29.89 in 15.0 mi SSW 9.2 mph - N/A Rain Light Rain Showers
7:00 PM 53.6 °F - 46.4 °F 77% 29.90 in 15.0 mi SSW 8.1 mph - N/A Rain Light Rain Showers
8:00 PM 51.8 °F - 48.2 °F 88% 29.91 in 10.0 mi SSW 12.7 mph - N/A   Overcast
8:10 PM 51.8 °F - 48.2 °F 88% 29.91 in 8.0 mi SSW 12.7 mph - N/A Rain Light Rain Showers
9:00 PM 48.2 °F - 46.4 °F 93% 29.93 in 3.0 mi South 9.2 mph - N/A Rain Light Rain Showers
10:00 PM 48.2 °F - 44.6 °F 87% 29.95 in 3.0 mi South 10.4 mph - N/A Rain Light Rain Showers
11:00 PM 47 °F - 46 °F 92% 29.97 in 3 mi South 6.9 mph - - Rain Light Rain Showers
11:00 PM 46.4 °F 43.5 °F 44.6 °F 93% 29.97 in 3.0 mi South 5.8 mph - N/A Rain Light Rain Showers